QPF
0.02 0.02 0.01 0.01 0.00 0.01 0.01 0.02 0.01 0.01 0.02 0.02 0.04 0.05 0.04 0.03 0.02 0.01 0.01 0.01 0.00 0.00
0.00 0.00 0.00 0.00 0.00 0.00 0.00 0.00 0.00 0.00 0.00 0.01 0.01 0.02 0.02 0.02 0.01 0.01 0.01 0.01 0.00 0.00
0.00 0.00 0.00 0.00 0.00 0.00 0.00 0.00 0.00 0.00 0.00 0.00 0.00 0.00 0.00 0.01 0.01 0.01 0.01 0.01 0.00 0.00
0.00 0.00 0.00 0.00 0.00 0.00 0.00 0.00 0.00 0.00 0.00 0.00 0.00 0.00 0.00 0.00 0.00 0.01 0.01 0.01 0.00 0.00
0.00 0.00 0.00 0.00 0.00 0.00 0.00 0.00 0.00 0.00 0.00 0.00 0.00 0.00 0.00 0.00 0.00 0.01 0.01 0.01 0.00 0.00
0.00 0.00 0.00 0.00 0.00 0.00 0.00 0.00 0.00 0.00 0.00 0.00 0.00 0.00 0.00 0.00 0.00 0.01 0.01 0.00 0.01 0.00
0.00 0.00 0.00 0.00 0.00 0.00 0.00 0.00 0.00 0.00 0.00 0.00 0.00 0.01 0.00 0.00 0.00 0.01 0.01 0.00 0.00 0.00
0.00 0.00 0.00 0.00 0.00 0.00 0.00 0.00 0.00 0.00 0.00 0.01 0.01 0.01 0.00 0.01 0.00 0.01 0.01 0.00 0.00 0.00
0.00 0.00 0.00 0.00 0.00 0.00 0.00 0.00 0.00 0.01 0.01 0.01 0.01 0.00 0.00 0.01 0.01 0.00 0.01 0.00 0.00 0.00
0.00 0.00 0.00 0.00 0.00 0.00 0.00 0.00 0.00 0.00 0.01 0.01 0.00 0.00 0.00 0.01 0.01 0.01 0.01 0.00 0.00 0.00
0.00 0.00 0.00 0.00 0.00 0.00 0.00 0.00 0.00 0.00 0.01 0.01 0.00 0.00 0.01 0.01 0.01 0.00 0.00 0.00 0.00 0.00
0.00 0.00 0.00 0.00 0.00 0.00 0.00 0.00 0.00 0.00 0.00 0.01 0.00 0.00 0.00 0.01 0.01 0.00 0.00 0.00 0.00 0.00
0.00 0.00 0.00 0.00 0.00 0.00 0.00 0.00 0.00 0.00 0.00 0.00 0.00 0.00 0.00 0.00 0.00 0.00 0.00 0.00 0.00 0.00
0.00 0.00 0.00 0.00 0.00 0.00 0.00 0.00 0.00 0.00 0.00 0.00 0.00 0.00 0.00 0.00 0.00 0.00 0.00 0.00 0.00 0.00
MSLP
1007.97 1008.16 1008.19 1008.20 1008.35 1007.46 1008.31 1008.60 1007.99 1008.31 1008.72 1008.45 1008.65 1009.13 1009.55 1009.80 1010.00 1010.50 1010.98 1011.49 1011.87 1012.53
1008.72 1008.53 1008.72 1008.48 1008.46 1008.80 1008.96 1008.37 1007.85 1007.81 1007.74 1007.59 1008.05 1008.33 1008.71 1009.00 1009.34 1009.76 1010.33 1010.64 1011.16 1011.57
1009.63 1009.41 1009.11 1008.70 1008.87 1008.89 1008.65 1008.25 1007.79 1007.35 1007.17 1007.17 1007.18 1007.43 1007.85 1008.19 1008.43 1008.85 1009.33 1009.96 1010.28 1011.00
1009.90 1009.52 1008.95 1008.81 1008.96 1008.88 1008.59 1008.19 1007.71 1007.24 1006.72 1006.41 1006.28 1006.51 1006.89 1007.22 1007.69 1008.03 1008.51 1009.08 1009.37 1010.08
1010.06 1010.11 1010.02 1009.94 1009.62 1009.13 1008.64 1008.10 1007.56 1006.84 1006.42 1005.73 1005.50 1005.48 1005.88 1006.29 1006.87 1007.27 1007.59 1008.08 1008.56 1009.28
1011.18 1010.93 1010.60 1010.07 1009.54 1009.02 1008.48 1007.70 1006.72 1006.10 1005.20 1004.64 1004.50 1004.48 1004.78 1005.37 1006.01 1006.36 1006.71 1007.16 1007.78 1008.42
1010.86 1010.66 1010.46 1009.97 1009.25 1008.94 1008.14 1007.05 1005.97 1005.08 1003.95 1003.53 1003.45 1003.58 1003.89 1004.39 1005.17 1005.65 1005.91 1006.32 1006.97 1007.58
1011.44 1011.40 1010.67 1009.71 1009.02 1008.31 1007.27 1006.12 1005.24 1004.31 1003.15 1002.42 1002.51 1002.71 1003.10 1003.61 1004.39 1004.89 1005.23 1005.74 1006.32 1006.97
1012.06 1011.12 1010.25 1009.50 1008.68 1007.71 1006.62 1005.50 1004.78 1003.71 1002.39 1001.65 1001.58 1001.98 1002.41 1002.97 1003.58 1004.12 1004.46 1005.05 1005.72 1006.37
1012.03 1011.36 1010.53 1009.58 1008.59 1007.45 1006.32 1005.45 1004.29 1003.12 1001.74 1001.17 1001.08 1001.47 1002.01 1002.48 1002.81 1003.40 1003.85 1004.30 1005.06 1005.96
1012.63 1011.57 1010.58 1009.56 1008.50 1007.43 1006.39 1005.17 1004.14 1002.63 1001.46 1000.74 1000.54 1000.84 1001.36 1001.93 1002.11 1002.65 1003.10 1003.68 1004.55 1005.43
1013.14 1012.19 1011.10 1009.88 1008.67 1007.48 1006.24 1005.10 1003.64 1002.33 1001.05 1000.12 1000.19 1000.28 1000.73 1001.43 1001.62 1002.26 1002.73 1003.43 1004.33 1004.98
1013.84 1012.59 1011.50 1010.28 1008.84 1007.62 1006.50 1005.06 1003.81 1002.34 1001.30 1000.11 999.89 999.97 1000.36 1000.81 1001.19 1001.96 1003.13 1004.05 1004.68 1004.82
1014.02 1013.05 1012.08 1010.75 1009.16 1007.80 1006.53 1005.23 1003.94 1002.69 1002.35 1002.00 1000.92 1000.15 1000.05 1000.20 1001.11 1002.23 1003.08 1004.37 1005.22 1005.49
Thickness
5625 5626 5628 5630 5630 5639 5634 5633 5642 5641 5639 5646 5647 5645 5644 5643 5642 5639 5635 5631 5628 5623
5605 5610 5612 5617 5620 5618 5619 5628 5635 5638 5640 5643 5641 5641 5641 5641 5639 5636 5632 5630 5626 5623
5588 5593 5600 5607 5607 5608 5611 5617 5624 5631 5634 5636 5640 5639 5638 5638 5637 5634 5631 5627 5625 5620
5579 5585 5592 5596 5596 5597 5601 5606 5613 5620 5626 5632 5635 5637 5635 5635 5633 5631 5629 5625 5625 5620
5567 5569 5572 5574 5578 5583 5589 5594 5601 5611 5617 5624 5629 5634 5633 5631 5629 5627 5627 5625 5622 5618
5547 5552 5557 5562 5568 5573 5578 5585 5594 5601 5613 5620 5624 5629 5630 5627 5624 5625 5624 5623 5619 5615
5539 5543 5545 5550 5558 5561 5567 5577 5587 5595 5607 5614 5619 5622 5624 5623 5620 5620 5620 5619 5616 5612
5524 5524 5532 5542 5549 5554 5563 5573 5581 5590 5602 5612 5614 5616 5619 5618 5614 5614 5615 5613 5611 5608
5510 5517 5525 5531 5538 5547 5556 5565 5574 5584 5600 5608 5610 5609 5609 5610 5610 5609 5610 5609 5605 5602
5501 5505 5511 5519 5526 5537 5547 5553 5565 5577 5596 5603 5604 5600 5600 5600 5605 5604 5603 5604 5600 5595
5487 5495 5502 5509 5517 5525 5534 5544 5554 5570 5586 5597 5599 5595 5594 5593 5599 5598 5598 5596 5593 5589
5474 5480 5488 5496 5505 5514 5524 5533 5547 5561 5579 5592 5594 5589 5588 5587 5592 5591 5590 5587 5584 5582
5457 5467 5475 5484 5494 5503 5512 5525 5535 5548 5558 5579 5586 5580 5580 5581 5584 5579 5571 5567 5567 5570
5447 5452 5458 5470 5482 5493 5503 5514 5525 5535 5538 5543 5556 5568 5570 5575 5572 5567 5560 5553 5549 5551